EHI
0 0 0 0 0 0 0 0 0 0 0 0 0 0 0 0 0 0 0 0 0 0 0 0 0 0 0 0 0 1 2 1 0 0 0 0 0 0 0 0 0 0 0 0
0 0 0 0 0 0 0 0 0 0 0 0 0 0 0 0 0 0 0 0 0 0 0 0 0 0 0 0 0 1 2 1 0 0 0 0 0 0 0 0 0 0 0 0
0 0 0 0 0 0 0 0 0 0 0 0 0 0 0 0 0 0 0 0 0 0 0 0 0 0 0 0 0 1 1 1 0 0 0 0 0 0 0 0 0 0 0 0
0 0 0 0 0 0 0 0 0 0 0 0 0 0 0 0 0 0 0 0 0 0 0 0 0 0 0 0 0 0 1 1 1 0 0 0 0 0 0 0 0 0 0 0
0 0 0 0 0 0 0 0 0 0 0 0 0 0 0 0 0 0 0 0 0 0 0 0 0 0 0 0 0 0 1 2 1 0 0 0 0 0 0 0 0 0 0 0
0 0 0 0 0 0 0 0 0 0 0 0 0 0 0 0 0 0 0 0 0 0 0 0 0 0 0 0 0 0 1 2 2 1 0 0 0 0 0 0 0 0 0 0
0 0 0 0 0 0 0 0 0 0 0 0 0 0 0 0 0 0 0 0 0 0 0 0 0 0 0 0 0 0 1 3 2 1 0 0 0 0 0 0 0 0 0 0
0 0 0 0 0 0 0 0 0 0 0 0 0 0 0 0 0 0 0 0 0 0 0 0 0 0 0 0 0 0 1 2 2 1 0 0 0 0 0 0 0 0 0 0
0 0 0 0 0 0 0 0 0 0 0 0 0 0 0 0 0 0 0 0 0 0 0 0 0 0 0 0 0 0 1 1 2 1 0 0 0 0 0 0 0 0 0 0
0 0 0 0 0 0 0 0 0 0 0 0 0 0 0 0 0 0 0 0 0 0 0 0 0 0 0 0 0 0 0 1 1 1 0 0 0 0 0 0 0 0 0 0
0 0 0 0 0 0 0 0 0 0 0 0 0 0 0 0 0 0 0 0 0 0 0 0 0 0 0 0 0 0 0 1 1 0 0 0 0 0 0 0 0 0 0 0
0 0 0 0 0 0 0 0 0 0 0 0 0 0 0 0 0 0 0 0 0 0 0 0 0 0 0 0 0 0 0 0 0 0 0 0 0 0 0 0 0 0 0 0
0 0 0 0 0 0 0 0 0 0 0 0 0 0 0 0 0 0 0 0 0 0 0 0 0 0 0 0 0 0 0 0 0 0 0 0 0 0 0 0 0 0 0 0
0 0 0 0 0 0 0 0 0 0 0 0 0 0 0 0 0 0 0 0 0 0 0 0 0 0 0 0 0 0 0 0 0 0 0 0 0 0 0 0 0 0 0 0
0 0 0 0 0 0 0 0 0 0 0 0 0 0 0 0 0 0 0 0 0 0 0 0 0 0 0 0 0 0 0 0 0 0 0 0 0 0 0 0 0 0 0 0
0 0 0 0 0 0 0 0 0 0 0 0 0 0 0 0 0 0 0 0 0 0 0 0 0 0 0 0 0 0 0 0 0 0 0 0 0 0 0 0 0 0 0 0
0 0 0 0 0 0 0 0 0 0 0 0 0 0 0 0 0 0 0 0 0 0 0 0 0 0 0 0 0 0 0 0 0 0 0 0 0 0 0 0 0 0 0 0
0 0 0 0 0 0 0 0 0 0 0 0 0 0 0 0 0 0 0 0 0 0 0 0 0 0 0 0 0 0 0 0 0 0 0 0 0 0 0 0 0 0 0 0
0 0 0 0 0 0 0 0 0 0 0 0 0 0 0 0 0 0 0 0 0 0 0 0 0 0 0 0 0 0 0 0 0 0 0 0 0 0 0 0 0 0 0 0
0 0 0 0 0 0 0 0 0 0 0 0 0 0 0 0 0 0 0 0 0 0 0 0 0 0 0 0 0 0 0 0 0 0 0 0 0 0 0 0 0 0 0 0
0 0 0 0 0 0 0 0 0 0 0 0 0 0 0 0 0 0 0 0 0 0 0 0 0 0 0 0 0 0 0 0 0 0 0 0 0 0 0 0 0 0 0 0
0 0 0 0 0 0 0 0 0 0 0 0 0 0 0 0 0 0 0 0 0 0 0 0 0 0 0 0 0 0 0 0 0 0 0 0 0 0 0 0 0 0 0 0
0 0 0 0 0 0 0 0 0 0 0 0 0 0 0 0 0 0 0 0 0 0 0 0 0 0 0 0 0 0 0 0 0 0 0 0 0 0 0 0 0 0 0 0
0 0 0 0 0 0 0 0 0 0 0 0 0 0 0 0 0 0 0 0 0 0 0 0 0 0 0 0 0 0 0 0 0 0 0 0 0 0 0 0 0 0 0 0
0 0 0 0 0 0 0 0 0 0 0 0 0 0 0 0 0 0 0 0 0 0 0 0 0 0 0 0 0 0 0 0 0 0 0 0 0 0 0 0 0 0 0 0
0 0 0 0 0 0 0 0 0 0 0 0 0 0 0 0 0 0 0 0 0 0 0 0 0 0 0 0 0 0 0 0 0 0 0 0 0 0 0 0 0 0 0 0
Wind_Speed
2 3 5 8 8 5 4 3 4 5 2 3 7 11 11 6 5 7 7 6 6 7 6 5 4 4 3 3 3 3 3 3 2 2 2 3 3 3 3 4 5 6 5 5
3 5 7 4 4 3 3 3 4 4 2 3 6 11 10 7 7 7 8 7 6 5 4 4 3 3 3 4 4 4 4 4 4 3 3 3 4 3 4 3 4 5 6 6
7 5 4 5 4 4 4 5 4 4 4 2 4 8 5 4 4 4 4 5 5 6 6 5 4 4 4 4 5 4 5 4 4 4 2 2 2 2 3 3 3 4 5 6
4 4 3 4 4 5 5 4 4 2 1 3 0 5 7 3 3 4 4 4 5 5 5 5 5 5 5 6 4 4 5 4 4 3 3 3 4 4 4 4 4 4 5 5
4 3 4 5 5 5 5 1 1 1 1 3 2 3 10 1 4 6 5 6 6 5 5 5 5 5 5 5 4 4 4 4 4 3 3 3 4 4 3 4 5 5 4 5
3 2 3 4 1 4 3 3 3 3 3 3 5 5 9 5 6 5 5 5 5 5 5 5 5 4 4 3 3 3 3 4 4 4 3 3 5 5 4 4 4 4 3 3
2 3 2 2 3 1 3 5 3 4 2 7 2 4 11 7 6 5 6 6 5 4 4 4 4 4 4 4 3 4 3 4 4 4 4 4 5 5 5 5 4 4 3 3
5 4 5 4 5 5 4 6 6 5 5 5 2 7 9 5 3 3 3 3 3 4 4 4 5 4 4 4 4 4 4 5 4 4 4 4 4 4 4 5 4 4 4 4
7 4 1 2 2 6 5 4 4 5 1 3 6 7 8 2 2 2 2 2 4 4 4 5 5 4 4 4 5 4 4 4 4 4 4 4 4 4 4 5 4 4 3 3
7 4 2 1 2 1 4 6 4 4 4 4 6 6 6 5 5 4 3 4 5 4 4 5 4 4 4 4 4 4 4 4 4 4 4 4 4 4 4 3 3 3 4 4
5 5 1 1 5 7 5 4 4 3 4 4 4 8 6 6 5 4 5 5 4 5 5 5 4 4 3 3 3 3 3 3 3 3 3 3 3 3 3 2 3 3 2 3
5 6 3 4 3 3 5 6 7 5 5 4 3 10 4 3 3 3 4 4 4 4 4 4 3 3 3 3 3 3 3 3 3 3 3 3 3 2 2 2 2 2 2 2
7 6 4 1 2 1 3 4 5 4 4 4 5 10 4 2 2 2 3 4 4 3 3 3 3 3 3 4 3 3 3 3 3 2 2 2 2 2 2 2 2 2 1 1
5 4 7 9 7 6 5 5 6 6 5 6 9 10 7 5 4 4 4 4 4 3 3 3 3 4 4 4 4 4 3 3 2 2 2 2 2 2 2 2 1 1 1 1
4 3 3 3 2 4 5 7 9 9 9 9 9 10 11 7 5 5 4 3 3 3 3 3 4 4 4 4 3 3 2 2 2 1 2 2 2 1 1 1 1 1 0 0
3 3 2 2 3 4 6 8 11 11 10 10 8 12 9 5 3 3 4 3 3 4 4 4 4 4 4 4 4 3 2 2 1 1 1 1 1 1 1 1 1 1 1 0
4 5 4 3 1 0 9 12 12 9 9 9 13 13 4 3 4 5 5 4 4 5 5 4 4 4 4 4 3 2 2 1 1 1 1 1 1 2 1 1 1 1 1 1
6 5 3 2 3 8 9 4 9 10 9 9 9 7 6 7 6 5 4 4 4 4 4 4 4 3 3 2 2 1 1 2 2 2 2 2 1 2 2 2 2 2 2 1
7 6 4 4 5 7 7 3 6 8 9 10 11 10 7 3 1 4 4 4 4 4 3 3 3 2 2 1 2 2 3 3 3 3 2 2 1 1 2 2 2 2 1 2
4 5 4 4 5 8 6 3 3 4 7 6 9 9 7 3 2 6 4 3 3 2 1 1 1 1 2 2 2 3 2 3 2 2 2 2 2 1 1 2 2 2 1 2
4 5 7 6 5 8 5 1 5 5 8 3 5 7 6 6 7 5 2 2 2 1 0 1 2 1 1 2 2 3 3 2 2 2 3 3 3 2 1 2 2 1 1 2
6 6 6 5 6 8 1 4 6 6 2 1 1 3 4 4 3 2 1 1 0 0 1 1 1 1 1 1 2 2 2 2 2 2 3 3 3 3 3 2 2 2 1 2
6 5 4 7 7 3 2 3 4 1 1 1 0 1 2 2 2 2 1 1 0 0 0 1 1 1 2 1 2 1 2 2 2 3 3 3 3 3 3 2 2 2 2 1
3 1 2 4 6 5 5 4 3 2 1 1 1 0 1 2 2 1 1 0 0 1 0 1 1 1 1 1 1 1 1 1 2 2 2 2 2 3 3 2 2 2 2 2
5 4 4 6 6 5 4 3 3 2 2 2 1 1 1 2 1 1 1 0 0 0 1 1 1 0 1 1 1 2 2 2 2 2 2 2 2 2 2 2 2 2 2 2
5 6 6 7 6 4 6 5 3 2 2 1 0 1 1 1 2 1 1 1 0 0 1 1 1 1 1 1 1 2 2 1 1 2 2 2 2 2 2 2 3 5 5 7
Wind_Direction
129 103 197 204 197 196 175 192 242 251 233 220 248 265 271 259 231 230 233 232 233 238 243 235 229 235 238 247 253 258 260 269 274 275 263 264 264 257 251 247 243 240 236 232
89 235 227 203 196 207 215 235 258 282 284 240 268 274 267 245 224 219 220 223 228 239 250 249 248 249 248 247 254 262 256 262 264 251 245 242 253 253 251 251 249 242 239 232
185 225 198 181 185 198 226 215 229 251 315 309 301 297 273 250 218 215 218 217 223 220 227 240 249 252 257 255 253 260 257 258 261 254 268 280 273 267 264 263 255 250 244 235
215 236 201 188 205 184 231 218 204 225 338 292 150 287 285 254 244 234 234 235 238 237 234 238 244 254 254 252 254 257 256 255 256 248 255 261 263 262 262 260 257 259 248 243
223 200 183 202 212 176 201 189 162 206 182 298 250 231 281 272 249 249 241 237 239 236 228 233 241 246 254 247 252 259 261 264 256 247 244 251 265 264 262 260 262 258 253 245
231 228 193 191 169 161 145 64 43 41 71 273 226 194 271 236 227 247 243 241 246 245 241 244 252 257 266 258 260 264 267 274 263 254 251 247 259 270 272 272 266 260 256 250
248 249 216 139 109 92 110 99 45 357 342 250 214 210 250 245 228 220 231 242 252 248 238 252 262 264 270 272 270 269 267 279 274 264 262 254 255 258 255 260 260 260 256 255
179 239 211 179 169 167 173 152 163 198 227 272 256 235 252 252 248 242 241 246 257 253 243 246 249 244 254 266 270 266 265 272 272 265 268 261 256 253 252 252 248 251 248 243
178 217 190 169 156 146 152 186 169 138 194 275 267 276 296 254 326 305 279 277 257 248 247 250 254 248 251 262 268 259 257 269 271 263 263 266 260 251 252 255 248 248 250 243
155 171 216 153 99 71 153 148 121 139 168 252 280 263 248 255 270 285 270 258 259 254 252 254 252 256 259 259 266 262 252 256 263 265 259 261 260 254 250 252 252 250 247 236
145 144 169 160 194 185 159 164 151 145 173 178 260 268 227 222 229 241 250 253 252 249 248 248 257 265 269 275 274 278 272 276 276 270 267 272 274 264 252 248 252 249 248 230
154 131 176 231 250 204 182 180 158 166 214 196 218 268 267 233 236 239 261 267 264 253 253 254 263 275 282 282 282 279 276 277 276 273 268 266 272 276 273 272 267 256 247 229
148 136 123 335 292 234 210 197 176 144 138 175 202 262 297 335 315 284 274 277 275 267 269 282 289 283 278 280 282 281 274 271 278 277 268 268 267 267 270 279 281 278 247 219
131 149 179 196 206 175 200 208 184 159 182 211 228 255 285 296 294 298 292 278 273 274 276 284 290 287 287 286 283 285 281 268 280 276 264 264 259 258 253 275 290 292 245 180
119 174 213 239 214 175 203 210 198 205 205 208 236 241 258 258 252 265 272 281 289 289 290 281 278 285 294 299 298 290 284 278 269 257 260 261 268 283 280 313 324 321 356 166
125 165 171 262 227 218 236 228 215 223 225 234 256 264 253 255 249 272 274 278 283 278 274 277 282 292 296 297 301 308 309 286 259 239 287 297 336 355 358 348 354 358 21 48
167 154 160 227 236 347 254 224 204 209 212 205 229 244 250 255 247 247 254 259 264 275 281 280 279 279 275 279 284 275 268 300 46 22 1 9 18 8 6 11 29 25 14 30
168 160 160 168 147 224 242 209 197 212 229 219 233 247 233 233 241 239 231 234 254 271 282 287 287 293 298 298 306 351 58 52 39 29 19 16 26 17 12 30 26 11 22 38
182 170 168 169 209 264 280 231 184 199 246 227 230 246 249 242 309 279 249 237 238 251 264 270 276 287 309 348 8 46 51 47 35 22 15 8 17 20 15 24 20 8 18 18
171 174 177 175 192 229 245 234 180 142 263 237 214 233 233 159 217 261 262 257 258 268 275 306 341 15 14 0 42 67 44 44 25 358 357 2 14 41 20 2 359 0 10 356
180 192 205 202 219 254 258 210 127 174 244 248 209 216 201 194 214 239 239 237 225 233 282 51 56 40 358 8 62 61 36 9 347 7 18 15 14 25 17 6 360 358 1 1
185 185 196 187 211 247 271 128 177 223 265 266 218 206 200 215 225 208 206 210 185 33 29 57 68 18 3 42 76 59 6 341 13 31 29 17 11 12 15 17 358 357 6 6
202 191 193 203 220 270 201 225 252 248 236 273 342 273 180 190 210 208 211 202 213 178 70 50 70 13 9 41 84 72 331 3 31 34 22 10 8 8 7 9 357 353 354 349
253 194 199 252 265 280 276 285 316 326 281 305 25 9 154 179 190 196 174 145 353 322 327 47 66 25 354 12 30 14 349 26 44 25 5 1 2 358 356 354 352 340 319 312
212 186 214 252 273 294 276 248 265 312 335 346 359 37 137 144 155 181 186 218 252 319 346 50 86 333 319 359 14 4 10 34 30 9 353 348 348 342 341 341 334 316 300 286
203 194 200 234 234 233 261 264 248 222 262 276 314 349 351 164 197 192 204 225 204 303 29 35 21 349 334 357 359 353 360 21 26 355 346 337 335 333 334 331 331 330 318 315